| time (UTC) | temp F | wind direction | speed MPH | gust MPH | rain 1hr in | rain 24hr in | rain mn in | humidity % | barometer mb |
| 20260507144356 | 82 | 270 | 3.0 | 3.0 | 0.00 | 0.00 | 0.00 | 97 | 994.6 |
| 20260507143856 | 82 | 248 | 3.0 | 3.0 | 0.00 | 0.00 | 0.00 | 97 | 994.6 |
| 20260507142357 | 82 | 248 | 7.0 | 7.0 | 0.00 | 0.00 | 0.00 | 99 | 994.6 |
| 20260507130055 | 84 | 270 | 2.0 | 2.0 | 0.09 | 0.00 | 0.26 | 99 | 992.9 |
| 20260507125054 | 85 | 203 | 3.0 | 3.0 | 0.09 | 0.00 | 0.26 | 98 | 992.6 |
| 20260507124555 | 86 | 270 | 3.0 | 3.0 | 0.09 | 0.00 | 0.26 | 96 | 992.2 |
| 20260507124054 | 87 | 248 | 3.0 | 3.0 | 0.07 | 0.00 | 0.24 | 93 | 992.2 |
| 20260507123554 | 90 | 225 | 3.0 | 3.0 | 0.04 | 0.00 | 0.21 | 88 | 992.2 |
| 20260507122555 | 91 | 315 | 4.0 | 4.0 | 0.00 | 0.00 | 0.17 | 80 | 992.2 |
| 20260507120555 | 93 | 248 | 4.0 | 4.0 | 0.00 | 0.00 | 0.17 | 78 | 991.9 |
| 20260507115555 | 94 | 270 | 4.0 | 4.0 | 0.00 | 0.00 | 0.17 | 78 | 991.9 |
| 20260507114555 | 93 | 23 | 4.0 | 4.0 | 0.00 | 0.00 | 0.17 | 78 | 991.9 |
| 20260507103906 | 95 | 0 | 5.0 | 5.0 | 0.00 | 0.00 | 0.17 | 77 | 991.5 |
| 20260507103406 | 96 | 270 | 4.0 | 4.0 | 0.00 | 0.00 | 0.17 | 78 | 991.5 |
| 20260507102406 | 95 | 248 | 4.0 | 4.0 | 0.00 | 0.00 | 0.17 | 79 | 991.5 |
| 20260507101406 | 96 | 225 | 4.0 | 4.0 | 0.00 | 0.00 | 0.17 | 76 | 991.9 |
| 20260507100406 | 97 | 293 | 4.0 | 4.0 | 0.00 | 0.00 | 0.17 | 76 | 991.9 |
| 20260507094406 | 96 | 180 | 4.0 | 4.0 | 0.00 | 0.00 | 0.17 | 78 | 992.2 |
| 20260507092905 | 96 | 293 | 4.0 | 4.0 | 0.00 | 0.00 | 0.17 | 78 | 992.2 |
| 20260507091905 | 95 | 248 | 4.0 | 4.0 | 0.00 | 0.00 | 0.17 | 78 | 992.2 |
| 20260507090905 | 96 | 203 | 3.0 | 3.0 | 0.00 | 0.00 | 0.17 | 78 | 992.2 |
| 20260507020706 | 78 | 293 | 1.0 | 1.0 | 0.00 | 0.00 | 0.17 | 99 | 996.6 |
| 20260507015205 | 78 | 225 | 0.0 | 0.0 | 0.00 | 0.00 | 0.17 | 99 | 996.3 |
| 20260507014705 | 78 | 270 | 0.0 | 0.0 | 0.00 | 0.00 | 0.17 | 99 | 996.3 |
| 20260507014205 | 78 | 270 | 0.0 | 0.0 | 0.00 | 0.00 | 0.17 | 99 | 995.9 |
| 20260507013205 | 78 | 270 | 0.0 | 0.0 | 0.00 | 0.00 | 0.17 | 99 | 995.9 |